This is the latest recevied weather packets stored in our database for station/object NK7E-1. If no packets are shown the sender has not sent any weather packets the latest 10 day(s).
| Time | Temp. | Humidity | Pressure | Rain* | Wind** | Luminosity | Snow |
|---|---|---|---|---|---|---|---|
| 1777438800 | 23.33° C | 15% | 1016.6 hPa | 0 mm | - | - | - |
| 1777438200 | 23.33° C | 15% | 1016.4 hPa | 0 mm | - | - | - |
| 1777437601 | 22.78° C | 15% | 1016.3 hPa | 0 mm | - | - | - |
| 1777437000 | 23.33° C | 15% | 1016 hPa | 0 mm | - | - | - |
| 1777436401 | 23.33° C | 15% | 1016.1 hPa | 0 mm | - | - | - |
| 1777435799 | 23.33° C | 16% | 1016.1 hPa | 0 mm | - | - | - |
| 1777435199 | 22.78° C | 17% | 1016 hPa | 0 mm | - | - | - |
| 1777434600 | 23.33° C | 17% | 1016 hPa | 0 mm | - | - | - |
| 1777434000 | 23.33° C | 17% | 1015.9 hPa | 0 mm | - | - | - |
| 1777433401 | 23.33° C | 16% | 1015.7 hPa | 0 mm | - | - | - |
| 1777432800 | 23.33° C | 16% | 1015.6 hPa | 0 mm | - | - | - |
| 1777432200 | 23.89° C | 16% | 1015.6 hPa | 0 mm | - | - | - |
| 1777431600 | 23.89° C | 15% | 1015.5 hPa | 0 mm | - | - | - |
| 1777431000 | 24.44° C | 14% | 1015.2 hPa | 0 mm | - | - | - |
| 1777430401 | 25° C | 14% | 1015 hPa | 0 mm | - | - | - |
| 1777429799 | 25° C | 14% | 1014.7 hPa | 0 mm | - | - | - |
| 1777429201 | 25° C | 14% | 1014.7 hPa | 0 mm | - | - | - |
| 1777428599 | 25° C | 14% | 1014.7 hPa | 0 mm | - | - | - |
| 1777428001 | 25.56° C | 14% | 1014.6 hPa | 0 mm | - | - | - |
| 1777427400 | 25.56° C | 13% | 1014.6 hPa | 0 mm | - | - | - |
| 1777426799 | 25.56° C | 13% | 1014.5 hPa | 0 mm | - | - | - |
| 1777426199 | 26.11° C | 13% | 1014.5 hPa | 0 mm | - | - | - |
| 1777425599 | 26.11° C | 13% | 1014.5 hPa | 0 mm | - | - | - |
| 1777425001 | 26.67° C | 13% | 1014.5 hPa | 0 mm | - | - | - |
| 1777424402 | 26.67° C | 12% | 1014.6 hPa | 0 mm | - | - | - |
* Rain latest hour (hover to see other rain measurements)
** Current wind speed in m/s (hover to see current wind gust speed)